NOAA 16 DEB, 42340

Orbit data source: Space-Track

NOAA 16 DEB, 42340 is space debris in SSO originally from a launch on Thu, 21 Sep 2000 UTC launched from the Air Force Western Test Range (AFWTR). Debris objects in space refer to the collection of defunct objects orbiting the Earth. Examples of debris include non-operational satellites, rocket bodies, and fragments generated from explosions, collisions, or faulty payload assembly.

Loading next visibility...
Identifier
42340, 2000-055QG
Orbit
SSO
Country
Flag of USUS
Related business
Manufacturer
Unknown
Mission
Spacecraft
Bus & Motor
Unknown
Mass
Unknown
Launch date (UTC)
2000-09-21 (25 years ago)
Launch vehicle
Unknown
Launch site
Air Force Western Test Range (AFWTR)
Object type
Payload
Rocket body
Debris
Shape & HBR
Unknown shape, 0.1 m
Radar Cross Section
Small (<0.1 m²)

Expand to show TLE details & history
Last TLE update: 3 days ago

TLE from 3 days ago
0 NOAA 16 DEB
1 42340U 00055QG  25284.66830058  .00016913  00000-0  51917-2 0  9995
2 42340  99.0251  69.9666 0029268 257.9994 101.7912 14.41429552496114
Epoch: 2025-10-11T16:02Z
TLE epoch observation values (Epoch: 2025-10-11T16:02:21.170Z)
Latitude
-0.00002°
Longitude
168.88191°
Altitude
761.037 km
Speed
7.472 km/s
True Right ascension
04h 39m 51s
True Declination
0° 00' 00"
Sunlit
Object was in full shadow at epoch
Visualization orbit readout
Latitude
Unknown
Longitude
Unknown
Altitude
Unknown
Speed
Unknown
Apparent Right ascension
Unknown
Apparent Declination
Unknown
Sunlit
N/A
Visualization observer readout
Local Sidereal Time
06:27:29
Azimuth
Unknown
Elevation
Unknown
Doppler factor
Unknown
Orbital elements
Apogee altitude
771.79 km
Perigee altitude
730.059 km
Semi-major axis
7,129.062 km
Eccentricity
0.00293
Inclination
99.0251°
RAAN
69.9666°
Arg. of periapsis
257.9994°
True anomaly
102.11926°
Mean anomaly
101.7912°
Eccentric anomaly
101.95526°
Mean motion
3.60574 °/min
Orbital period
99.84 mins
BSTAR
0.0051917
Loading maneuver chart data...
Computing Atmospheric mass density...
Loading historical data...
Loading historical data...
Loading historical data...
Loading historical data...
Loading historical data...
Loading historical data...
Loading historical data...

Documentation

Showing up to 5 results
|